User: anonymous   Login
Location: Peebles
(55.6412°N, 3.1714°W)
Time: 04:03:50
(UTC+00:00)
Language:

Meteor 1-24 Rocket - Orbit

View from above orbital plane
View from above orbital plane
View from above satellite
View from above satellite

Ground track
Ground track

The orbit data is extracted from the following two-line orbital elements,

1 08800U 76032B   21333.70675328 -.00000036  00000-0 -25663-4 0  9991
2 08800  81.2521  74.8915 0094421 260.0196  99.0308 14.10174923347213
Epoch (UTC): 29 November 2021 16:57:43
Eccentricity: 0.0094421
inclination: 81.2521°
perigee height: 790 km
apogee height: 927 km
right ascension of ascending node: 74.8915°
argument of perigee: 260.0196°
revolutions per day: 14.10174923
mean anomaly at epoch: 99.0308°
orbit number at epoch: 34721

The dashed part of the orbit path shows where the satellite is in the earth's shadow,  

DLR